Regional Weather Roundup
Issued by NWS

Home | Current Version | Previous Version | Graphics & Text | Print | Product List | Glossary On
Versions: 1 2 3 4 5 6 7 8 9 10 11 12 13 14 15 16 17 18 19 20 21 22 23 24 25 26 27 28 29 30 31 32 33 34 35 36 37 38 39 40 41 42 43 44 45 46 47 48 49 50
000
ASUS45 KBOU 270307
RWRCO

WEATHER ROUNDUP FOR COLORADO
NATIONAL WEATHER SERVICE DENVER/BOULDER CO
900 PM MDT TUE JUL 26 2016

NOTE: "FAIR" INDICATES FEW OR NO CLOUDS BELOW 12000 FEET WITH NO
SIGNIFICANT WEATHER AND/OR OBSTRUCTIONS TO VISIBILITY.

COZ001>005-013-030-031-270400-
...NORTHWEST COLORADO...

CITY           SKY/WX    TMP DP  RH WIND       PRES   REMARKS
CRAIG          FAIR      65  48  54 CALM      30.24R
HAYDEN         FAIR      68  43  40 E10       30.27S
MEEKER         FAIR      69  45  41 NE7       30.25F
MOUNT WERNER   NOT AVBL
STEAMBOAT SPGS FAIR      63  44  50 N3        30.30R
WALDEN         FAIR      55  37  50 S12       30.41S
$$

COZ006>008-011-270400-
...WEST CENTRAL VALLEYS...

CITY           SKY/WX    TMP DP  RH WIND       PRES   REMARKS
GRAND JUNCTION FAIR      84  39  20 E12       30.09F
MONTROSE       FAIR      78  45  30 CALM      30.21R
EAGLE          FAIR      72  39  30 NE5       30.32S
RIFLE          FAIR      78  42  27 NE6       30.18S
DELTA          FAIR      86  37  17 NE13      30.14S
NUCLA          FAIR      77  37  24 NW9       30.25R
$$

COZ017>023-064>068-270400-
...SOUTHWEST COLORADO...

CITY           SKY/WX    TMP DP  RH WIND       PRES   REMARKS
DURANGO        FAIR      66  52  60 NE8       30.29R
CORTEZ         FAIR      78  46  32 CALM      30.17R
PAGOSA SPRINGS FAIR      65  47  50 CALM      30.38S
TELLURIDE      FAIR      67  37  33 CALM      30.49R
WOLF CREEK PAS MOCLDY    46  37  71 NE8       30.72R
$$

COZ009-010-012-014-032>034-037-058>063-270400-
...CENTRAL COLORADO...

CITY           SKY/WX    TMP DP  RH WIND       PRES   REMARKS
ASPEN          FAIR      62  43  49 SW8       30.39R
BUENA VISTA    FAIR      64  42  43 SE3       30.42S
COPPER MTN     FAIR      54  34  47 SE3       30.73F
BERTHOUD PASS  FAIR      45  32  61 W7        30.75F
COTTONWOOD PAS FAIR      61  37  41 E3        30.58R
GUNNISON       FAIR      70  39  32 E10       30.40R
KREMMLING      FAIR      61  37  41 E5        30.38F
LEADVILLE      FAIR      55  33  43 N9        30.56R
MONARCH PASS   MOCLDY    50  36  57 NE13      30.82S
SALIDA         FAIR      69  44  40 CALM      30.45S
SUNLIGHT       CLOUDY    57  37  47 MISG      30.65F
WILKERSON PASS CLOUDY    54  32  43 W5        30.69F
$$

COZ069>075-270400-
...SAN LUIS VALLEY/SANGRE DE CRISTO MOUNTAINS...

CITY           SKY/WX    TMP DP  RH WIND       PRES   REMARKS
ALAMOSA        CLOUDY    67  47  48 W7        30.35R
LA VETA PASS   MOCLDY    57  36  44 CALM      30.56S
SAGUACHE       MOCLDY    66  46  48 N5        30.40S
$$

COZ035-036-038>040-270400-
...NORTHERN COLORADO FRONT RANGE...

CITY           SKY/WX    TMP DP  RH WIND       PRES   REMARKS
DENVER INTL AP MOCLDY    78  42  27 NW7       30.13F
DMNS CITY PARK   N/A     80  37  21 SW9       30.13S
AURORA         MOCLDY    76  40  27 SW7       30.17S
FRONT RANGE AP NOT AVBL
ERIE MUNI ARPT FAIR      80  34  19 W7        30.11F
BOULDER MUN AP FAIR      79  37  22 W12G21    30.11F
CENTENNIAL     FAIR      78  36  21 W9        30.19S
BROOMFIELD     MOCLDY    77  37  24 W9        30.16F
LONGMONT       FAIR      78  38  23 S3        30.12R
$$

COZ041-046-047-076>085-087-088-270400-
...PIKES PEAK/PALMER DIVIDE AND SOUTHERN FOOTHILLS...

CITY           SKY/WX    TMP DP  RH WIND       PRES   REMARKS
COLO. SPRINGS  MOCLDY    77  41  27 W9        30.24R
A. F. ACADEMY  MOCLDY    69  45  42 N5        30.25S
SCHRIEVER AFB  NOT AVBL
ELLICOTT       FAIR     N/A N/A N/A NW3       30.22R
FALCON         FAIR      69  42  36 W6        30.30R
FORT CARSON    MOCLDY    76  41  27 W12       30.19S
LIMON          NOT AVBL
MONUMENT HILL  FAIR      66  46  48 SW8       30.32R
TRINIDAD       NOT AVBL
$$

COZ042>045-048>051-090-091-270400-
...NORTHEAST COLORADO...

CITY           SKY/WX    TMP DP  RH WIND       PRES   REMARKS
GREELEY ARPT   FAIR      73  52  46 SE8       30.10R
AKRON          FAIR      72  51  47 S12       30.10R
BURLINGTON     FAIR      68  57  68 E12       30.09S
WRAY           FAIR      75  48  38 SW9G16    30.02R
STERLING       FAIR      72  54  53 SW6       30.03S
HOLYOKE        FAIR      73  57  56 W5        30.02S
FORT MORGAN    FAIR      72  52  49 S9        30.09S
$$

COZ086-089-092>099-270400-
...SOUTHEAST COLORADO...

CITY           SKY/WX    TMP DP  RH WIND       PRES   REMARKS
PUEBLO         FAIR      82  48  30 NW9       30.09F
LA JUNTA       FAIR      83  59  44 S9        30.04R
LAMAR          FAIR      83  65  54 SE10      30.01R
SPRINGFIELD      N/A     78  62  57 SE13      30.09R
$$



USA.gov is the U.S. government's official web portal to all federal, state and local government web resources and services.